Flag for U.S.A. Weather past 2 weeks in Toccoa, Georgia, U.S.A.

Now
78 °F

Sunny.


Feels Like: 78 °F
Forecast: 56 / 78 °F
Wind: 5 mph from Northeast

Location: Clemson-Oconee County Airport

Current Time: May 22, 2015 at 4:03:57 PM

Latest Report: May 22, 2015 at 2:54 PM


Visibility: 10 mi

Pressure: 30.18 "Hg

Humidity: 29%

Dew point: 43 °F

Location of ToccoaLocation

Historic Weather in Toccoa — Graph

°F

Toccoa temperature yesterday

Maximum temperature yesterday: 87 °F (at 2:54 PM)
Minimum temperature yesterday: 64 °F (at 11:54 PM)
Average temperature yesterday: 77 °F

Past Weeks' High & Low Weather Summary

 TemperatureHumidityPressure
High91 °F (May 11, 3:54 PM)87% (May 11, 6:54 AM)30.36 "Hg (May 11, 6:54 AM)
Low57 °F (May 22, 5:54 AM)18% (May 12, 6:54 PM)29.80 "Hg (May 21, 5:54 AM)
Average76 °F57%30.11 "Hg
* Reported May 7 2:54 PM — May 22 2:54 PM, Toccoa, Weather by CustomWeather, © 2015

Note: Actual official high and low records may vary slightly from our data, if they occured in-between our weather recording intervals... More about our weather records

Advertising

Toccoa weather history for previous 24 hours

 ConditionsComfort  
Time TempWeatherWind HumidityBarometerVisibility
2:54 PM
Fri, May 22
78 °FSunny.5 mph29%30.18 "Hg10 mi
1:54 PM77 °FSunny.7 mph29%30.19 "Hg10 mi
12:54 PM73 °FSunny.3 mph33%30.20 "Hg10 mi
11:54 AM72 °FSunny.3 mph34%30.22 "Hg10 mi
10:54 AM69 °FSunny.7 mph38%30.22 "Hg10 mi
9:54 AM65 °FSunny.9 mph44%30.20 "Hg10 mi
8:54 AM63 °FSunny.8 mph48%30.18 "Hg10 mi
7:54 AM60 °FSunny.5 mph56%30.16 "Hg10 mi
6:54 AM57 °FClear.3 mph64%30.12 "Hg10 mi
5:54 AM57 °FClear.No wind67%30.08 "Hg10 mi
4:54 AM58 °FClear.No wind60%30.05 "Hg10 mi
3:54 AM60 °FClear.3 mph53%30.03 "Hg10 mi
2:54 AM62 °FClear.6 mph50%30.02 "Hg10 mi
1:54 AM63 °FClear.3 mph52%30.01 "Hg10 mi
12:54 AM64 °FClear.8 mph50%30.01 "Hg10 mi
11:54 PM
Thu, May 21
64 °FClear.9 mph50%30.00 "Hg10 mi
10:54 PM66 °FClear.10 mph52%29.97 "Hg10 mi
9:54 PM67 °FClear.10 mph57%29.94 "Hg10 mi
8:54 PM70 °FSunny.15 mph51%29.91 "Hg10 mi
7:54 PM75 °FSunny.17 mph42%29.87 "Hg10 mi
6:54 PM81 °FSunny.18 mph27%29.85 "Hg10 mi
5:54 PM84 °FSunny.20 mph23%29.84 "Hg10 mi
4:54 PM86 °FLight rain. Sunny.21 mph26%29.83 "Hg10 mi
Weather by CustomWeather, © 2015

See weather overviewHow to use our weather pages